Flag for Germany Weather past 2 weeks in Jena, Thuringia, Germany

Now
36 °F

Light rain. Passing clouds.


Feels Like: 30 °F
Forecast: 29 / 43 °F
Wind: 7 mph from Northwest

Location: Erfurt-Bindersleben

Current Time: Feb 27, 2015 at 10:32:39 PM

Latest Report: Feb 27, 2015 at 9:50 PM


Visibility: 4 mi

Pressure: 30.04 "Hg

Humidity: 100%

Dew point: 36 °F

Location of JenaLocation

Historic Weather in Jena — Graph

°F

Jena temperature yesterday

Maximum temperature yesterday: 48 °F (at 1:50 PM)
Minimum temperature yesterday: 30 °F (at 3:50 AM)
Average temperature yesterday: 38 °F

Past Weeks' High & Low Weather Summary

 TemperatureHumidityPressure
High48 °F (Feb 21, 1:20 PM)100% (Feb 12, 9:20 PM)30.72 "Hg (Feb 12, 9:20 PM)
Low21 °F (Feb 13, 6:20 AM)43% (Feb 26, 1:50 PM)29.39 "Hg (Feb 23, 3:50 PM)
Average34 °F86%29.99 "Hg
* Reported Feb 12 9:20 PM — Feb 27 9:20 PM, Jena, Weather by CustomWeather, © 2015

Note: Actual official high and low records may vary slightly from our data, if they occured in-between our weather recording intervals... More about our weather records

Advertising

Jena weather history for previous 24 hours

 ConditionsComfort  
Time TempWeatherWind HumidityBarometerVisibility
9:20 PM
Fri, Feb 27
36 °FLight rain. Passing clouds.6 mph100%30.04 "Hg4 mi
8:50 PM36 °FLight rain. Passing clouds.9 mph100%30.01 "Hg4 mi
8:20 PM36 °FLight rain. Passing clouds.13 mph100%30.01 "HgN/A
7:50 PM36 °FLight rain. Passing clouds.9 mph100%29.98 "HgN/A
7:20 PM36 °FLight rain. Partly cloudy.9 mph93%29.98 "HgN/A
6:50 PM37 °FLight rain. Partly cloudy.9 mph87%29.98 "HgN/A
6:20 PM37 °FLight rain. Passing clouds.9 mph93%29.95 "HgN/A
5:50 PM39 °FBroken clouds.10 mph87%29.95 "HgN/A
5:20 PM39 °FPartly sunny.12 mph87%29.92 "HgN/A
4:50 PM41 °FBroken clouds.8 mph81%29.92 "HgN/A
4:20 PM41 °FBroken clouds.7 mph70%29.89 "HgN/A
3:50 PM43 °FBroken clouds.5 mph66%29.89 "HgN/A
3:20 PM43 °FPassing clouds.6 mph66%29.89 "HgN/A
2:50 PM43 °FSunny.6 mph61%29.86 "Hg10 mi
2:20 PM41 °FSunny.7 mph66%29.86 "Hg10 mi
1:50 PM41 °FSunny.7 mph66%29.86 "Hg10 mi
1:20 PM41 °FSunny.7 mph70%29.86 "Hg10 mi
12:50 PM41 °FSunny.8 mph66%29.86 "Hg10 mi
12:20 PM41 °FSunny.9 mph66%29.86 "Hg10 mi
11:50 AM41 °FSunny.5 mph70%29.86 "Hg10 mi
11:20 AM39 °FSunny.5 mph75%29.86 "Hg10 mi
10:50 AM39 °FSunny.3 mph75%29.83 "Hg10 mi
10:20 AM41 °FSunny.1 mph61%29.83 "Hg10 mi
9:50 AM41 °FSunny.3 mph57%29.83 "Hg10 mi
9:20 AM41 °FSunny.7 mph57%29.83 "Hg10 mi
8:50 AM41 °FSunny.10 mph57%29.83 "Hg10 mi
8:20 AM37 °FSunny.9 mph65%29.80 "Hg10 mi
7:50 AM36 °FSunny.8 mph70%29.80 "Hg10 mi
7:20 AM34 °FSunny.9 mph75%29.80 "Hg10 mi
6:50 AM34 °FClear.9 mph75%29.80 "Hg10 mi
6:20 AM34 °FClear.10 mph75%29.80 "Hg10 mi
5:50 AM34 °FClear.10 mph75%29.80 "Hg10 mi
5:20 AM34 °FClear.10 mph75%29.80 "Hg10 mi
4:20 AM34 °FClear.10 mph75%29.80 "Hg10 mi
3:50 AM34 °FClear.10 mph75%29.83 "Hg10 mi
3:20 AM36 °FClear.9 mph70%29.83 "Hg10 mi
2:50 AM36 °FClear.12 mph70%29.83 "Hg10 mi
2:20 AM36 °FClear.14 mph65%29.86 "Hg10 mi
1:50 AM36 °FClear.15 mph65%29.86 "Hg10 mi
1:20 AM36 °FClear.13 mph65%29.89 "Hg10 mi
12:50 AM36 °FClear.12 mph65%29.89 "Hg10 mi
12:20 AM36 °FClear.13 mph65%29.89 "Hg10 mi
11:50 PM
Thu, Feb 26
36 °FClear.13 mph70%29.92 "Hg10 mi
11:20 PM36 °FClear.12 mph70%29.92 "Hg10 mi
10:50 PM36 °FClear.13 mph70%29.92 "Hg10 mi
10:20 PM36 °FClear.13 mph70%29.92 "Hg10 mi
Weather by CustomWeather, © 2015

See weather overviewHow to use our weather pages